Year,Month,Day,Hour,Minute,Value (Times are PST for temperature in C)
2007,08,14,00,00,12.80
2007,08,14,00,01,12.80
2007,08,14,00,02,12.80
2007,08,14,00,03,12.80
2007,08,14,00,04,12.80
2007,08,14,00,05,12.80
2007,08,14,00,06,12.70
2007,08,14,00,07,12.70
2007,08,14,00,08,12.70
2007,08,14,00,09,12.70
2007,08,14,00,10,12.70
2007,08,14,00,11,12.70
2007,08,14,00,12,12.70
2007,08,14,00,13,12.70
2007,08,14,00,14,12.60
2007,08,14,00,15,12.60
2007,08,14,00,16,12.60
2007,08,14,00,17,12.60
2007,08,14,00,18,12.60
2007,08,14,00,19,12.60
2007,08,14,00,20,12.60
2007,08,14,00,21,12.60
2007,08,14,00,22,12.60
2007,08,14,00,23,12.60
2007,08,14,00,24,12.50
2007,08,14,00,25,12.50
2007,08,14,00,26,12.50
2007,08,14,00,27,12.50
2007,08,14,00,28,12.50
2007,08,14,00,29,12.50
2007,08,14,00,30,12.50
2007,08,14,00,31,12.40
2007,08,14,00,32,12.40
2007,08,14,00,33,12.40
2007,08,14,00,34,12.40
2007,08,14,00,35,12.40
2007,08,14,00,36,12.40
2007,08,14,00,37,12.40
2007,08,14,00,38,12.40
2007,08,14,00,39,12.40
2007,08,14,00,40,12.40
2007,08,14,00,41,12.40
2007,08,14,00,42,12.40
2007,08,14,00,43,12.40
2007,08,14,00,44,12.40
2007,08,14,00,45,12.40
2007,08,14,00,46,12.40
2007,08,14,00,47,12.40
2007,08,14,00,48,12.40
2007,08,14,00,49,12.40
2007,08,14,00,50,12.40
2007,08,14,00,51,12.40
2007,08,14,00,52,12.40
2007,08,14,00,53,12.40
2007,08,14,00,54,12.40
2007,08,14,00,55,12.40
2007,08,14,00,56,12.40
2007,08,14,00,57,12.40
2007,08,14,00,58,12.40
2007,08,14,00,59,12.40
2007,08,14,01,00,12.40
2007,08,14,01,01,12.30
2007,08,14,01,02,12.30
2007,08,14,01,03,12.30
2007,08,14,01,04,12.30
2007,08,14,01,05,12.30
2007,08,14,01,06,12.30
2007,08,14,01,07,12.30
2007,08,14,01,08,12.30
2007,08,14,01,09,12.30
2007,08,14,01,10,12.30
2007,08,14,01,11,12.30
2007,08,14,01,12,12.30
2007,08,14,01,13,12.30
2007,08,14,01,14,12.30
2007,08,14,01,15,12.30
2007,08,14,01,16,12.30
2007,08,14,01,17,12.30
2007,08,14,01,18,12.30
2007,08,14,01,19,12.30
2007,08,14,01,20,12.30
2007,08,14,01,21,12.30
2007,08,14,01,22,12.30
2007,08,14,01,23,12.30
2007,08,14,01,24,12.30
2007,08,14,01,25,12.30
2007,08,14,01,26,12.30
2007,08,14,01,27,12.30
2007,08,14,01,28,12.30
2007,08,14,01,29,12.30
2007,08,14,01,30,12.30
2007,08,14,01,31,12.30
2007,08,14,01,32,12.30
2007,08,14,01,33,12.30
2007,08,14,01,34,12.30
2007,08,14,01,35,12.30
2007,08,14,01,36,12.30
2007,08,14,01,37,12.30
2007,08,14,01,38,12.30
2007,08,14,01,39,12.30
2007,08,14,01,40,12.30
2007,08,14,01,41,12.30
2007,08,14,01,42,12.30
2007,08,14,01,43,12.30
2007,08,14,01,44,12.40
2007,08,14,01,45,12.40
2007,08,14,01,46,12.40
2007,08,14,01,47,12.40
2007,08,14,01,48,12.40
2007,08,14,01,49,12.40
2007,08,14,01,50,12.40
2007,08,14,01,51,12.40
2007,08,14,01,52,12.40
2007,08,14,01,53,12.40
2007,08,14,01,54,12.40
2007,08,14,01,55,12.40
2007,08,14,01,56,12.40
2007,08,14,01,57,12.40
2007,08,14,01,58,12.40
2007,08,14,01,59,12.40
2007,08,14,02,00,12.40
2007,08,14,02,01,12.40
2007,08,14,02,02,12.40
2007,08,14,02,03,12.40
2007,08,14,02,04,12.40
2007,08,14,02,05,12.40
2007,08,14,02,06,12.50
2007,08,14,02,07,12.50
2007,08,14,02,08,12.50
2007,08,14,02,09,12.50
2007,08,14,02,10,12.50
2007,08,14,02,11,12.50
2007,08,14,02,12,12.50
2007,08,14,02,13,12.50
2007,08,14,02,14,12.60
2007,08,14,02,15,12.60
2007,08,14,02,16,12.60
2007,08,14,02,17,12.60
2007,08,14,02,18,12.60
2007,08,14,02,19,12.60
2007,08,14,02,20,12.60
2007,08,14,02,21,12.60
2007,08,14,02,22,12.60
2007,08,14,02,23,12.70
2007,08,14,02,24,12.70
2007,08,14,02,25,12.70
2007,08,14,02,26,12.70
2007,08,14,02,27,12.70
2007,08,14,02,28,12.70
2007,08,14,02,29,12.70
2007,08,14,02,30,12.80
2007,08,14,02,31,12.80
2007,08,14,02,32,12.80
2007,08,14,02,33,12.80
2007,08,14,02,34,12.80
2007,08,14,02,35,12.90
2007,08,14,02,36,12.90
2007,08,14,02,37,12.90
2007,08,14,02,38,13.00
2007,08,14,02,39,13.00
2007,08,14,02,40,13.00
2007,08,14,02,41,13.00
2007,08,14,02,42,13.10
2007,08,14,02,43,13.10
2007,08,14,02,44,13.10
2007,08,14,02,45,13.10
2007,08,14,02,46,13.10
2007,08,14,02,47,13.10
2007,08,14,02,48,13.20
2007,08,14,02,49,13.20
2007,08,14,02,50,13.20
2007,08,14,02,51,13.20
2007,08,14,02,52,13.20
2007,08,14,02,53,13.20
2007,08,14,02,54,13.20
2007,08,14,02,55,13.30
2007,08,14,02,56,13.30
2007,08,14,02,57,13.30
2007,08,14,02,58,13.30
2007,08,14,02,59,13.40
2007,08,14,03,00,13.40
2007,08,14,03,01,13.50
2007,08,14,03,02,13.50
2007,08,14,03,03,13.50
2007,08,14,03,04,13.60
2007,08,14,03,05,13.60
2007,08,14,03,06,13.60
2007,08,14,03,07,13.60
2007,08,14,03,08,13.60
2007,08,14,03,09,13.60
2007,08,14,03,10,13.70
2007,08,14,03,11,13.70
2007,08,14,03,12,13.70
2007,08,14,03,13,13.80
2007,08,14,03,14,13.80
2007,08,14,03,15,13.80
2007,08,14,03,16,13.80
2007,08,14,03,17,13.80
2007,08,14,03,18,13.80
2007,08,14,03,19,13.80
2007,08,14,03,20,13.90
2007,08,14,03,21,14.00
2007,08,14,03,22,14.00
2007,08,14,03,23,14.00
2007,08,14,03,24,14.00
2007,08,14,03,25,14.00
2007,08,14,03,26,14.00
2007,08,14,03,27,14.00
2007,08,14,03,28,14.00
2007,08,14,03,29,14.00
2007,08,14,03,30,13.90
2007,08,14,03,31,13.90
2007,08,14,03,32,13.90
2007,08,14,03,33,13.90
2007,08,14,03,34,13.90
2007,08,14,03,35,13.90
2007,08,14,03,36,13.90
2007,08,14,03,37,13.90
2007,08,14,03,38,13.90
2007,08,14,03,39,13.90
2007,08,14,03,40,13.90
2007,08,14,03,41,13.90
2007,08,14,03,42,13.90
2007,08,14,03,43,13.90
2007,08,14,03,44,13.90
2007,08,14,03,45,13.80
2007,08,14,03,46,13.80
2007,08,14,03,47,13.80
2007,08,14,03,48,13.80
2007,08,14,03,49,13.80
2007,08,14,03,50,13.80
2007,08,14,03,51,13.80
2007,08,14,03,52,13.80
2007,08,14,03,53,13.80
2007,08,14,03,54,13.80
2007,08,14,03,55,13.80
2007,08,14,03,56,13.70
2007,08,14,03,57,13.70
2007,08,14,03,58,13.70
2007,08,14,03,59,13.70
2007,08,14,04,00,13.70
2007,08,14,04,01,13.70
2007,08,14,04,02,13.70
2007,08,14,04,03,13.70
2007,08,14,04,04,13.70
2007,08,14,04,05,13.70
2007,08,14,04,06,13.70
2007,08,14,04,07,13.70
2007,08,14,04,08,13.70
2007,08,14,04,09,13.70
2007,08,14,04,10,13.70
2007,08,14,04,11,13.60
2007,08,14,04,12,13.60
2007,08,14,04,13,13.60
2007,08,14,04,14,13.60
2007,08,14,04,15,13.60
2007,08,14,04,16,13.60
2007,08,14,04,17,13.60
2007,08,14,04,18,13.60
2007,08,14,04,19,13.60
2007,08,14,04,20,13.50
2007,08,14,04,21,13.50
2007,08,14,04,22,13.50
2007,08,14,04,23,13.50
2007,08,14,04,24,13.50
2007,08,14,04,25,13.50
2007,08,14,04,26,13.50
2007,08,14,04,27,13.40
2007,08,14,04,28,13.50
2007,08,14,04,29,13.40
2007,08,14,04,30,13.40
2007,08,14,04,31,13.40
2007,08,14,04,32,13.40
2007,08,14,04,33,13.40
2007,08,14,04,34,13.40
2007,08,14,04,35,13.40
2007,08,14,04,36,13.40
2007,08,14,04,37,13.40
2007,08,14,04,38,13.40
2007,08,14,04,39,13.40
2007,08,14,04,40,13.40
2007,08,14,04,41,13.40
2007,08,14,04,42,13.30
2007,08,14,04,43,13.30
2007,08,14,04,44,13.30
2007,08,14,04,45,13.30
2007,08,14,04,46,13.30
2007,08,14,04,47,13.30
2007,08,14,04,48,13.30
2007,08,14,04,49,13.30
2007,08,14,04,50,13.30
2007,08,14,04,51,13.30
2007,08,14,04,52,13.20
2007,08,14,04,53,13.20
2007,08,14,04,54,13.20
2007,08,14,04,55,13.20
2007,08,14,04,56,13.20
2007,08,14,04,57,13.20
2007,08,14,04,58,13.20
2007,08,14,04,59,13.10
2007,08,14,05,00,13.10
2007,08,14,05,01,13.10
2007,08,14,05,02,13.10
2007,08,14,05,03,13.10
2007,08,14,05,04,13.10
2007,08,14,05,05,13.10
2007,08,14,05,06,13.10
2007,08,14,05,07,13.00
2007,08,14,05,08,13.00
2007,08,14,05,09,13.00
2007,08,14,05,10,13.00
2007,08,14,05,11,12.90
2007,08,14,05,12,12.90
2007,08,14,05,13,12.90
2007,08,14,05,14,12.90
2007,08,14,05,15,12.90
2007,08,14,05,16,12.90
2007,08,14,05,17,12.90
2007,08,14,05,18,12.90
2007,08,14,05,19,12.90
2007,08,14,05,20,12.80
2007,08,14,05,21,12.80
2007,08,14,05,22,12.80
2007,08,14,05,23,12.80
2007,08,14,05,24,12.80
2007,08,14,05,25,12.80
2007,08,14,05,26,12.80
2007,08,14,05,27,12.80
2007,08,14,05,28,12.80
2007,08,14,05,29,12.70
2007,08,14,05,30,12.70
2007,08,14,05,31,12.70
2007,08,14,05,32,12.70
2007,08,14,05,33,12.70
2007,08,14,05,34,12.70
2007,08,14,05,35,12.70
2007,08,14,05,36,12.70
2007,08,14,05,37,12.70
2007,08,14,05,38,12.70
2007,08,14,05,39,12.60
2007,08,14,05,40,12.60
2007,08,14,05,41,12.60
2007,08,14,05,42,12.60
2007,08,14,05,43,12.60
2007,08,14,05,44,12.60
2007,08,14,05,45,12.60
2007,08,14,05,46,12.60
2007,08,14,05,47,12.60
2007,08,14,05,48,12.60
2007,08,14,05,49,12.60
2007,08,14,05,50,12.60
2007,08,14,05,51,12.60
2007,08,14,05,52,12.60
2007,08,14,05,53,12.50
2007,08,14,05,54,12.50
2007,08,14,05,55,12.50
2007,08,14,05,56,12.50
2007,08,14,05,57,12.50
2007,08,14,05,58,12.50
2007,08,14,05,59,12.50
2007,08,14,06,00,12.50
2007,08,14,06,01,12.50
2007,08,14,06,02,12.40
2007,08,14,06,03,12.40
2007,08,14,06,04,12.40
2007,08,14,06,05,12.40
2007,08,14,06,06,12.40
2007,08,14,06,07,12.40
2007,08,14,06,08,12.40
2007,08,14,06,09,12.40
2007,08,14,06,10,12.40
2007,08,14,06,11,12.40
2007,08,14,06,12,12.40
2007,08,14,06,13,12.40
2007,08,14,06,14,12.40
2007,08,14,06,15,12.40
2007,08,14,06,16,12.40
2007,08,14,06,17,12.40
2007,08,14,06,18,12.40
2007,08,14,06,19,12.40
2007,08,14,06,20,12.40
2007,08,14,06,21,12.40
2007,08,14,06,22,12.40
2007,08,14,06,23,12.40
2007,08,14,06,24,12.30
2007,08,14,06,25,12.30
2007,08,14,06,26,12.30
2007,08,14,06,27,12.30
2007,08,14,06,28,12.30
2007,08,14,06,29,12.30
2007,08,14,06,30,12.30
2007,08,14,06,31,12.30
2007,08,14,06,32,12.30
2007,08,14,06,33,12.30
2007,08,14,06,34,12.30
2007,08,14,06,35,12.30
2007,08,14,06,36,12.30
2007,08,14,06,37,12.30
2007,08,14,06,38,12.30
2007,08,14,06,39,12.30
2007,08,14,06,40,12.30
2007,08,14,06,41,12.30
2007,08,14,06,42,12.30
2007,08,14,06,43,12.30
2007,08,14,06,44,12.30
2007,08,14,06,45,12.30
2007,08,14,06,46,12.30
2007,08,14,06,47,12.30
2007,08,14,06,48,12.30
2007,08,14,06,49,12.30
2007,08,14,06,50,12.30
2007,08,14,06,51,12.30
2007,08,14,06,52,12.30
2007,08,14,06,53,12.30
2007,08,14,06,54,12.30
2007,08,14,06,55,12.30
2007,08,14,06,56,12.30
2007,08,14,06,57,12.30
2007,08,14,06,58,12.30
2007,08,14,06,59,12.30
2007,08,14,07,00,12.30
2007,08,14,07,01,12.30
2007,08,14,07,02,12.30
2007,08,14,07,03,12.30
2007,08,14,07,04,12.30
2007,08,14,07,05,12.30
2007,08,14,07,06,12.30
2007,08,14,07,07,12.30
2007,08,14,07,08,12.30
2007,08,14,07,09,12.30
2007,08,14,07,10,12.30
2007,08,14,07,11,12.30
2007,08,14,07,12,12.30
2007,08,14,07,13,12.30
2007,08,14,07,14,12.30
2007,08,14,07,15,12.30
2007,08,14,07,16,12.30
2007,08,14,07,17,12.30
2007,08,14,07,18,12.30
2007,08,14,07,19,12.30
2007,08,14,07,20,12.30
2007,08,14,07,21,12.30
2007,08,14,07,22,12.30
2007,08,14,07,23,12.30
2007,08,14,07,24,12.30
2007,08,14,07,25,12.30
2007,08,14,07,26,12.30
2007,08,14,07,27,12.30
2007,08,14,07,28,12.30
2007,08,14,07,29,12.30
2007,08,14,07,30,12.30
2007,08,14,07,31,12.30
2007,08,14,07,32,12.40
2007,08,14,07,33,12.40
2007,08,14,07,34,12.40
2007,08,14,07,35,12.40
2007,08,14,07,36,12.40
2007,08,14,07,37,12.40
2007,08,14,07,38,12.40
2007,08,14,07,39,12.40
2007,08,14,07,40,12.40
2007,08,14,07,41,12.40
2007,08,14,07,42,12.40
2007,08,14,07,43,12.40
2007,08,14,07,44,12.50
2007,08,14,07,45,12.50
2007,08,14,07,46,12.50
2007,08,14,07,47,12.60
2007,08,14,07,48,12.60
2007,08,14,07,49,12.60
2007,08,14,07,50,12.70
2007,08,14,07,51,12.70
2007,08,14,07,52,12.70
2007,08,14,07,53,12.70
2007,08,14,07,54,12.70
2007,08,14,07,55,12.80
2007,08,14,07,56,12.80
2007,08,14,07,57,12.80
2007,08,14,07,58,12.90
2007,08,14,07,59,12.90
2007,08,14,08,00,13.00
2007,08,14,08,01,13.00
2007,08,14,08,02,13.00
2007,08,14,08,03,13.10
2007,08,14,08,04,13.20
2007,08,14,08,05,13.20
2007,08,14,08,06,13.30
2007,08,14,08,07,13.30
2007,08,14,08,08,13.30
2007,08,14,08,09,13.40
2007,08,14,08,10,13.40
2007,08,14,08,11,13.50
2007,08,14,08,12,13.60
2007,08,14,08,13,13.60
2007,08,14,08,14,13.60
2007,08,14,08,15,13.70
2007,08,14,08,16,13.70
2007,08,14,08,17,13.70
2007,08,14,08,18,13.70
2007,08,14,08,19,13.80
2007,08,14,08,20,13.80
2007,08,14,08,21,13.80
2007,08,14,08,22,13.80
2007,08,14,08,23,13.80
2007,08,14,08,24,13.80
2007,08,14,08,25,13.90
2007,08,14,08,26,13.90
2007,08,14,08,27,13.90
2007,08,14,08,28,14.00
2007,08,14,08,29,14.10
2007,08,14,08,30,14.20
2007,08,14,08,31,14.40
2007,08,14,08,32,14.50
2007,08,14,08,33,14.60
2007,08,14,08,34,14.70
2007,08,14,08,35,14.80
2007,08,14,08,36,15.00
2007,08,14,08,37,15.00
2007,08,14,08,38,15.00
2007,08,14,08,39,15.00
2007,08,14,08,40,15.00
2007,08,14,08,41,15.10
2007,08,14,08,42,15.20
2007,08,14,08,43,15.20
2007,08,14,08,44,15.30
2007,08,14,08,45,15.30
2007,08,14,08,46,15.40
2007,08,14,08,47,15.50
2007,08,14,08,48,15.50
2007,08,14,08,49,15.60
2007,08,14,08,50,15.60
2007,08,14,08,51,15.70
2007,08,14,08,52,15.70
2007,08,14,08,53,15.70
2007,08,14,08,54,15.80
2007,08,14,08,55,15.80
2007,08,14,08,56,15.90
2007,08,14,08,57,15.90
2007,08,14,08,58,15.90
2007,08,14,08,59,15.90
2007,08,14,09,00,16.00
2007,08,14,09,01,16.00
2007,08,14,09,02,16.00
2007,08,14,09,03,16.00
2007,08,14,09,04,16.10
2007,08,14,09,05,16.10
2007,08,14,09,06,16.10
2007,08,14,09,07,16.10
2007,08,14,09,08,16.10
2007,08,14,09,09,16.20
2007,08,14,09,10,16.20
2007,08,14,09,11,16.20
2007,08,14,09,12,16.20
2007,08,14,09,13,16.20
2007,08,14,09,14,16.20
2007,08,14,09,15,16.20
2007,08,14,09,16,16.20
2007,08,14,09,17,16.20
2007,08,14,09,18,16.20
2007,08,14,09,19,16.30
2007,08,14,09,20,16.30
2007,08,14,09,21,16.30
2007,08,14,09,22,16.30
2007,08,14,09,23,16.30
2007,08,14,09,24,16.30
2007,08,14,09,25,16.30
2007,08,14,09,26,16.30
2007,08,14,09,27,16.30
2007,08,14,09,28,16.30
2007,08,14,09,29,16.40
2007,08,14,09,30,16.40
2007,08,14,09,31,16.40
2007,08,14,09,32,16.50
2007,08,14,09,33,16.50
2007,08,14,09,34,16.60
2007,08,14,09,35,16.70
2007,08,14,09,36,16.70
2007,08,14,09,37,16.80
2007,08,14,09,38,16.80
2007,08,14,09,39,16.90
2007,08,14,09,40,17.00
2007,08,14,09,41,17.10
2007,08,14,09,42,17.20
2007,08,14,09,43,17.30
2007,08,14,09,44,17.40
2007,08,14,09,45,17.50
2007,08,14,09,46,17.60
2007,08,14,09,47,17.60
2007,08,14,09,48,17.70
2007,08,14,09,49,17.70
2007,08,14,09,50,17.70
2007,08,14,09,51,17.80
2007,08,14,09,52,17.80
2007,08,14,09,53,17.80
2007,08,14,09,54,17.90
2007,08,14,09,55,17.80
2007,08,14,09,56,17.90
2007,08,14,09,57,17.90
2007,08,14,09,58,17.90
2007,08,14,09,59,17.90
2007,08,14,10,00,18.00
2007,08,14,10,01,18.00
2007,08,14,10,02,18.00
2007,08,14,10,03,18.10
2007,08,14,10,04,18.10
2007,08,14,10,05,18.20
2007,08,14,10,06,18.20
2007,08,14,10,07,18.20
2007,08,14,10,08,18.30
2007,08,14,10,09,18.40
2007,08,14,10,10,18.40
2007,08,14,10,11,18.40
2007,08,14,10,12,18.40
2007,08,14,10,13,18.40
2007,08,14,10,14,18.50
2007,08,14,10,15,18.50
2007,08,14,10,16,18.60
2007,08,14,10,17,18.60
2007,08,14,10,18,18.60
2007,08,14,10,19,18.60
2007,08,14,10,20,18.60
2007,08,14,10,21,18.60
2007,08,14,10,22,18.70
2007,08,14,10,23,18.70
2007,08,14,10,24,18.70
2007,08,14,10,25,18.70
2007,08,14,10,26,18.80
2007,08,14,10,27,18.80
2007,08,14,10,28,18.80
2007,08,14,10,29,18.80
2007,08,14,10,30,18.90
2007,08,14,10,31,18.80
2007,08,14,10,32,18.90
2007,08,14,10,33,18.90
2007,08,14,10,34,18.90
2007,08,14,10,35,18.90
2007,08,14,10,36,18.90
2007,08,14,10,37,18.90
2007,08,14,10,38,18.90
2007,08,14,10,39,18.90
2007,08,14,10,40,18.90
2007,08,14,10,41,18.90
2007,08,14,10,42,18.90
2007,08,14,10,43,18.90
2007,08,14,10,44,18.90
2007,08,14,10,45,18.90
2007,08,14,10,46,18.90
2007,08,14,10,47,18.90
2007,08,14,10,48,19.00
2007,08,14,10,49,19.00
2007,08,14,10,50,19.00
2007,08,14,10,51,18.90
2007,08,14,10,52,18.90
2007,08,14,10,53,18.90
2007,08,14,10,54,18.90
2007,08,14,10,55,18.90
2007,08,14,10,56,18.80
2007,08,14,10,57,18.80
2007,08,14,10,58,18.80
2007,08,14,10,59,18.80
2007,08,14,11,00,18.80
2007,08,14,11,01,18.80
2007,08,14,11,02,18.80
2007,08,14,11,03,18.90
2007,08,14,11,04,18.90
2007,08,14,11,05,18.90
2007,08,14,11,06,18.90
2007,08,14,11,07,19.00
2007,08,14,11,08,19.00
2007,08,14,11,09,19.00
2007,08,14,11,10,18.90
2007,08,14,11,11,19.00
2007,08,14,11,12,19.10
2007,08,14,11,13,19.10
2007,08,14,11,14,19.20
2007,08,14,11,15,19.30
2007,08,14,11,16,19.30
2007,08,14,11,17,19.30
2007,08,14,11,18,19.40
2007,08,14,11,19,19.40
2007,08,14,11,20,19.30
2007,08,14,11,21,19.30
2007,08,14,11,22,19.30
2007,08,14,11,23,19.40
2007,08,14,11,24,19.50
2007,08,14,11,25,19.50
2007,08,14,11,26,19.60
2007,08,14,11,27,19.60
2007,08,14,11,28,19.60
2007,08,14,11,29,19.60
2007,08,14,11,30,19.60
2007,08,14,11,31,19.60
2007,08,14,11,32,19.50
2007,08,14,11,33,19.40
2007,08,14,11,34,19.40
2007,08,14,11,35,19.50
2007,08,14,11,36,19.60
2007,08,14,11,37,19.60
2007,08,14,11,38,19.60
2007,08,14,11,39,19.60
2007,08,14,11,40,19.60
2007,08,14,11,41,19.70
2007,08,14,11,42,19.70
2007,08,14,11,43,19.80
2007,08,14,11,44,19.80
2007,08,14,11,45,19.80
2007,08,14,11,46,19.80
2007,08,14,11,47,19.80
2007,08,14,11,48,19.70
2007,08,14,11,49,19.70
2007,08,14,11,50,19.80
2007,08,14,11,51,19.90
2007,08,14,11,52,19.90
2007,08,14,11,53,20.00
2007,08,14,11,54,19.90
2007,08,14,11,55,19.90
2007,08,14,11,56,19.90
2007,08,14,11,57,20.00
2007,08,14,11,58,20.00
2007,08,14,11,59,20.00
2007,08,14,12,00,20.10
2007,08,14,12,01,20.20
2007,08,14,12,02,20.30
2007,08,14,12,03,20.40
2007,08,14,12,04,20.40
2007,08,14,12,05,20.40
2007,08,14,12,06,20.50
2007,08,14,12,07,20.50
2007,08,14,12,08,20.60
2007,08,14,12,09,20.70
2007,08,14,12,10,20.70
2007,08,14,12,11,20.60
2007,08,14,12,12,20.60
2007,08,14,12,13,20.60
2007,08,14,12,14,20.60
2007,08,14,12,15,20.50
2007,08,14,12,16,20.50
2007,08,14,12,17,20.50
2007,08,14,12,18,20.50
2007,08,14,12,19,20.60
2007,08,14,12,20,20.60
2007,08,14,12,21,20.60
2007,08,14,12,22,20.70
2007,08,14,12,23,20.60
2007,08,14,12,24,20.60
2007,08,14,12,25,20.60
2007,08,14,12,26,20.60
2007,08,14,12,27,20.70
2007,08,14,12,28,20.70
2007,08,14,12,29,20.70
2007,08,14,12,30,20.70
2007,08,14,12,31,20.80
2007,08,14,12,32,20.80
2007,08,14,12,33,20.90
2007,08,14,12,34,20.80
2007,08,14,12,35,20.90
2007,08,14,12,36,20.90
2007,08,14,12,37,21.00
2007,08,14,12,38,21.10
2007,08,14,12,39,21.20
2007,08,14,12,40,21.20
2007,08,14,12,41,21.40
2007,08,14,12,42,21.50
2007,08,14,12,43,21.50
2007,08,14,12,44,21.50
2007,08,14,12,45,21.30
2007,08,14,12,46,21.20
2007,08,14,12,47,21.20
2007,08,14,12,48,21.20
2007,08,14,12,49,21.20
2007,08,14,12,50,21.10
2007,08,14,12,51,21.10
2007,08,14,12,52,21.20
2007,08,14,12,53,21.20
2007,08,14,12,54,21.30
2007,08,14,12,55,21.30
2007,08,14,12,56,21.40
2007,08,14,12,57,21.40
2007,08,14,12,58,21.40
2007,08,14,12,59,21.40
2007,08,14,13,00,21.50
2007,08,14,13,01,21.50
2007,08,14,13,02,21.60
2007,08,14,13,03,21.60
2007,08,14,13,04,21.60
2007,08,14,13,05,21.60
2007,08,14,13,06,21.70
2007,08,14,13,07,21.70
2007,08,14,13,08,21.60
2007,08,14,13,09,21.60
2007,08,14,13,10,21.50
2007,08,14,13,11,21.40
2007,08,14,13,12,21.30
2007,08,14,13,13,21.30
2007,08,14,13,14,21.30
2007,08,14,13,15,21.30
2007,08,14,13,16,21.40
2007,08,14,13,17,21.40
2007,08,14,13,18,21.30
2007,08,14,13,19,21.10
2007,08,14,13,20,21.00
2007,08,14,13,21,20.80
2007,08,14,13,22,20.60
2007,08,14,13,23,20.50
2007,08,14,13,24,20.30
2007,08,14,13,25,20.20
2007,08,14,13,26,20.10
2007,08,14,13,27,20.00
2007,08,14,13,28,20.00
2007,08,14,13,29,19.90
2007,08,14,13,30,19.90
2007,08,14,13,31,19.90
2007,08,14,13,32,19.90
2007,08,14,13,33,19.80
2007,08,14,13,34,19.80
2007,08,14,13,35,19.80
2007,08,14,13,36,19.80
2007,08,14,13,37,19.80
2007,08,14,13,38,19.80
2007,08,14,13,39,19.80
2007,08,14,13,40,19.80
2007,08,14,13,41,19.90
2007,08,14,13,42,20.00
2007,08,14,13,43,20.00
2007,08,14,13,44,20.10
2007,08,14,13,45,20.10
2007,08,14,13,46,20.10
2007,08,14,13,47,20.10
2007,08,14,13,48,20.20
2007,08,14,13,49,20.20
2007,08,14,13,50,20.20
2007,08,14,13,51,20.20
2007,08,14,13,52,20.30
2007,08,14,13,53,20.40
2007,08,14,13,54,20.40
2007,08,14,13,55,20.40
2007,08,14,13,56,20.40
2007,08,14,13,57,20.40
2007,08,14,13,58,20.40
2007,08,14,13,59,20.30
2007,08,14,14,00,20.40
2007,08,14,14,01,20.40
2007,08,14,14,02,20.40
2007,08,14,14,03,20.50
2007,08,14,14,04,20.60
2007,08,14,14,05,20.70
2007,08,14,14,06,20.80
2007,08,14,14,07,20.90
2007,08,14,14,08,20.90
2007,08,14,14,09,21.10
2007,08,14,14,10,21.20
2007,08,14,14,11,21.30
2007,08,14,14,12,21.50
2007,08,14,14,13,21.60
2007,08,14,14,14,21.80
2007,08,14,14,15,21.90
2007,08,14,14,16,22.00
2007,08,14,14,17,22.10
2007,08,14,14,18,22.20
2007,08,14,14,19,22.30
2007,08,14,14,20,22.30
2007,08,14,14,21,22.30
2007,08,14,14,22,22.40
2007,08,14,14,23,22.50
2007,08,14,14,24,22.50
2007,08,14,14,25,22.60
2007,08,14,14,26,22.70
2007,08,14,14,27,22.80
2007,08,14,14,28,22.80
2007,08,14,14,29,22.90
2007,08,14,14,30,23.00
2007,08,14,14,31,23.00
2007,08,14,14,32,23.10
2007,08,14,14,33,23.20
2007,08,14,14,34,23.20
2007,08,14,14,35,23.30
2007,08,14,14,36,23.30
2007,08,14,14,37,23.30
2007,08,14,14,38,23.30
2007,08,14,14,39,23.40
2007,08,14,14,40,23.40
2007,08,14,14,41,23.50
2007,08,14,14,42,23.50
2007,08,14,14,43,23.60
2007,08,14,14,44,23.60
2007,08,14,14,45,23.70
2007,08,14,14,46,23.80
2007,08,14,14,47,23.80
2007,08,14,14,48,23.90
2007,08,14,14,49,23.90
2007,08,14,14,50,24.00
2007,08,14,14,51,24.10
2007,08,14,14,52,24.10
2007,08,14,14,53,24.10
2007,08,14,14,54,24.10
2007,08,14,14,55,24.20
2007,08,14,14,56,24.10
2007,08,14,14,57,24.00
2007,08,14,14,58,24.00
2007,08,14,14,59,23.90
2007,08,14,15,00,23.90
2007,08,14,15,01,23.80
2007,08,14,15,02,23.90
2007,08,14,15,03,23.90
2007,08,14,15,04,23.90
2007,08,14,15,05,23.90
2007,08,14,15,06,24.00
2007,08,14,15,07,24.00
2007,08,14,15,08,24.00
2007,08,14,15,09,24.00
2007,08,14,15,10,24.00
2007,08,14,15,11,24.10
2007,08,14,15,12,24.20
2007,08,14,15,13,24.20
2007,08,14,15,14,24.20
2007,08,14,15,15,24.30
2007,08,14,15,16,24.30
2007,08,14,15,17,24.30
2007,08,14,15,18,24.30
2007,08,14,15,19,24.30
2007,08,14,15,20,24.30
2007,08,14,15,21,24.30
2007,08,14,15,22,24.30
2007,08,14,15,23,24.20
2007,08,14,15,24,24.20
2007,08,14,15,25,24.30
2007,08,14,15,26,24.30
2007,08,14,15,27,24.40
2007,08,14,15,28,24.40
2007,08,14,15,29,24.40
2007,08,14,15,30,24.40
2007,08,14,15,31,24.40
2007,08,14,15,32,24.40
2007,08,14,15,33,24.30
2007,08,14,15,34,24.30
2007,08,14,15,35,24.40
2007,08,14,15,36,24.40
2007,08,14,15,37,24.50
2007,08,14,15,38,24.50
2007,08,14,15,39,24.50
2007,08,14,15,40,24.50
2007,08,14,15,41,24.50
2007,08,14,15,42,24.40
2007,08,14,15,43,24.40
2007,08,14,15,44,24.40
2007,08,14,15,45,24.50
2007,08,14,15,46,24.50
2007,08,14,15,47,24.40
2007,08,14,15,48,24.40
2007,08,14,15,49,24.50
2007,08,14,15,50,24.60
2007,08,14,15,51,24.60
2007,08,14,15,52,24.60
2007,08,14,15,53,24.70
2007,08,14,15,54,24.70
2007,08,14,15,55,24.80
2007,08,14,15,56,24.80
2007,08,14,15,57,24.80
2007,08,14,15,58,24.80
2007,08,14,15,59,24.80
2007,08,14,16,00,24.80
2007,08,14,16,01,24.90
2007,08,14,16,02,25.00
2007,08,14,16,03,25.00
2007,08,14,16,04,25.10
2007,08,14,16,05,25.10
2007,08,14,16,06,25.10
2007,08,14,16,07,25.20
2007,08,14,16,08,25.30
2007,08,14,16,09,25.30
2007,08,14,16,10,25.40
2007,08,14,16,11,25.50
2007,08,14,16,12,25.60
2007,08,14,16,13,25.70
2007,08,14,16,14,25.80
2007,08,14,16,15,25.90
2007,08,14,16,16,25.90
2007,08,14,16,17,25.90
2007,08,14,16,18,25.80
2007,08,14,16,19,25.70
2007,08,14,16,20,25.70
2007,08,14,16,21,25.70
2007,08,14,16,22,25.70
2007,08,14,16,23,25.70
2007,08,14,16,24,25.70
2007,08,14,16,25,25.70
2007,08,14,16,26,25.70
2007,08,14,16,27,25.70
2007,08,14,16,28,25.60
2007,08,14,16,29,25.60
2007,08,14,16,30,25.70
2007,08,14,16,31,25.70
2007,08,14,16,32,25.70
2007,08,14,16,33,25.60
2007,08,14,16,34,25.40
2007,08,14,16,35,25.30
2007,08,14,16,36,25.30
2007,08,14,16,37,25.20
2007,08,14,16,38,25.20
2007,08,14,16,39,25.30
2007,08,14,16,40,25.40
2007,08,14,16,41,25.40
2007,08,14,16,42,25.50
2007,08,14,16,43,25.50
2007,08,14,16,44,25.40
2007,08,14,16,45,25.30
2007,08,14,16,46,25.30
2007,08,14,16,47,25.30
2007,08,14,16,48,25.30
2007,08,14,16,49,25.30
2007,08,14,16,50,25.30
2007,08,14,16,51,25.30
2007,08,14,16,52,25.30
2007,08,14,16,53,25.30
2007,08,14,16,54,25.30
2007,08,14,16,55,25.30
2007,08,14,16,56,25.30
2007,08,14,16,57,25.30
2007,08,14,16,58,25.20
2007,08,14,16,59,25.20
2007,08,14,17,00,25.20
2007,08,14,17,01,25.20
2007,08,14,17,02,25.10
2007,08,14,17,03,25.00
2007,08,14,17,04,24.90
2007,08,14,17,05,24.90
2007,08,14,17,06,24.80
2007,08,14,17,07,24.80
2007,08,14,17,08,24.70
2007,08,14,17,09,24.60
2007,08,14,17,10,24.60
2007,08,14,17,11,24.50
2007,08,14,17,12,24.40
2007,08,14,17,13,24.40
2007,08,14,17,14,24.30
2007,08,14,17,15,24.30
2007,08,14,17,16,24.30
2007,08,14,17,17,24.30
2007,08,14,17,18,24.20
2007,08,14,17,19,24.20